Total_Precipitation_Accumulation
2.26 2.13 3.11 4.63 4.91 4.12 3.51 2.97 2.25 1.81 1.27 1.05 0.96 1.08 1.46 2.00 2.44 2.93 3.28 3.17 2.16 1.78 1.93 2.78 3.85 3.76 3.44 3.52 3.46 3.36 3.35 3.27 3.21 3.12 2.93 2.84 2.73 2.78 3.12 3.13 3.09 2.93 2.89 2.98 3.08 3.33 3.56 3.60 3.63
1.85 2.54 3.74 5.17 4.65 3.69 3.33 2.83 2.14 1.51 0.99 0.78 0.69 0.77 0.90 0.94 1.07 1.86 3.13 3.12 1.79 1.44 1.66 2.27 3.30 3.22 3.14 3.18 2.96 2.86 2.87 2.82 2.87 2.91 2.74 2.68 2.69 2.85 3.20 3.16 2.97 2.77 2.65 2.75 3.02 3.34 3.47 3.54 3.62
2.07 3.29 4.39 4.61 3.67 3.36 3.24 2.52 1.72 1.02 0.69 0.61 0.61 0.61 0.74 1.12 1.30 2.03 2.77 2.23 1.41 1.24 1.58 2.38 3.16 2.99 2.98 2.92 2.66 2.68 2.60 2.58 2.65 2.74 2.65 2.76 2.75 2.87 3.14 3.22 3.15 3.01 2.98 3.01 3.20 3.32 3.38 3.55 3.60
2.38 3.62 3.92 3.60 3.12 2.59 2.19 1.80 1.34 1.13 0.74 0.46 0.44 0.59 0.70 1.19 1.56 1.86 1.89 1.53 1.24 1.28 1.46 2.07 2.78 2.70 2.63 2.55 2.58 2.58 2.48 2.45 2.46 2.55 2.60 2.74 2.84 2.82 3.04 3.20 3.04 2.90 3.14 3.39 3.57 3.54 3.52 3.61 3.67
2.96 3.78 3.54 2.97 2.57 2.08 1.55 1.22 1.05 1.07 0.87 0.52 0.40 0.65 1.00 1.49 1.66 1.47 1.34 1.10 1.06 1.15 1.20 1.63 2.40 2.42 2.35 2.36 2.47 2.54 2.42 2.46 2.37 2.42 2.66 2.79 2.82 2.87 2.99 3.12 3.02 2.90 3.04 3.50 3.75 3.77 3.70 3.56 3.51
3.25 3.34 3.29 2.81 2.52 2.01 1.55 1.13 0.90 0.85 0.70 0.50 0.42 0.66 1.17 1.56 1.76 1.52 1.28 1.28 1.23 1.25 1.17 1.38 2.12 2.30 2.21 2.32 2.34 2.39 2.48 2.45 2.35 2.40 2.50 2.66 2.80 2.79 2.88 2.95 2.98 2.89 2.94 3.18 3.32 3.33 3.50 3.37 3.35
3.11 3.01 2.77 2.29 2.36 2.48 1.79 1.12 0.96 0.94 0.78 0.56 0.40 0.72 1.18 1.52 1.47 1.36 1.40 1.47 1.47 1.51 1.45 1.53 1.76 1.95 2.15 2.28 2.28 2.40 2.54 2.51 2.36 2.28 2.32 2.38 2.51 2.50 2.53 2.62 2.81 2.85 2.99 3.06 3.07 3.24 3.41 3.37 3.34
2.41 2.49 2.25 2.19 2.39 2.60 1.68 1.09 0.90 0.85 0.77 0.40 0.34 0.70 1.12 1.14 1.10 1.23 1.35 1.37 1.37 1.44 1.42 1.47 1.61 1.69 1.75 1.92 2.29 2.58 2.94 2.82 2.39 2.12 2.00 2.16 2.20 2.19 2.34 2.43 2.74 3.04 3.24 3.46 3.45 3.56 3.40 3.30 3.11
2.17 2.58 2.68 2.68 2.63 2.27 1.49 1.27 0.98 0.66 0.60 0.45 0.40 0.55 0.70 0.70 0.86 0.99 1.16 1.17 1.16 1.12 1.17 1.28 1.38 1.43 1.50 1.52 1.79 2.34 2.83 2.83 2.35 1.97 1.92 1.86 1.69 1.68 1.86 2.11 2.63 3.02 3.30 3.63 3.69 3.57 3.31 2.97 2.76
2.11 2.52 2.42 2.02 1.69 1.41 1.22 1.10 0.94 0.83 0.85 0.70 0.60 0.58 0.60 0.65 0.87 0.95 0.99 1.09 1.04 0.97 0.93 0.95 0.96 1.06 1.14 1.14 1.49 1.82 1.87 2.09 1.84 1.76 1.68 1.66 1.70 1.71 1.46 1.66 2.24 2.68 2.97 3.25 3.48 3.40 2.95 2.28 2.04
1.78 1.90 1.67 1.45 1.11 0.91 0.91 0.82 0.72 0.76 0.87 0.77 0.75 0.63 0.67 0.70 0.81 0.85 0.82 0.82 0.88 0.87 0.85 0.79 0.76 0.84 0.98 1.13 1.30 1.52 1.68 1.84 1.81 1.75 1.77 1.86 1.83 1.55 1.40 1.51 1.70 1.99 2.31 2.45 2.69 2.68 2.19 1.82 1.71
1.69 1.40 1.23 1.18 0.83 0.82 0.85 0.70 0.63 0.63 0.60 0.48 0.58 0.56 0.60 0.66 0.68 0.68 0.70 0.73 0.71 0.71 0.81 0.77 0.62 0.64 0.74 0.83 1.00 1.16 1.37 1.59 1.65 1.48 1.46 1.63 1.71 1.55 1.43 1.61 1.68 1.88 2.19 2.46 2.56 2.35 2.00 1.64 1.49
1.63 1.50 1.21 1.06 0.83 0.83 0.77 0.70 0.60 0.53 0.47 0.41 0.47 0.60 0.67 0.73 0.74 0.69 0.68 0.72 0.69 0.72 0.78 0.82 0.72 0.67 0.71 0.76 0.82 0.85 1.16 1.35 1.51 1.57 1.39 1.51 1.60 1.56 1.45 1.42 1.61 1.70 2.01 2.26 2.41 2.29 2.08 1.81 1.56
1.49 1.36 1.11 1.01 0.89 0.81 0.76 0.68 0.64 0.55 0.48 0.45 0.51 0.65 0.71 0.79 0.80 0.74 0.70 0.69 0.62 0.69 0.77 0.78 0.79 0.77 0.76 0.78 0.78 0.77 0.85 0.95 1.06 1.02 1.02 1.19 1.34 1.38 1.40 1.32 1.41 1.59 1.94 2.37 2.51 2.23 2.10 1.89 1.77
1.22 1.33 1.38 1.15 0.94 0.76 0.78 0.96 0.72 0.59 0.59 0.58 0.60 0.64 0.69 0.69 0.73 0.75 0.70 0.69 0.67 0.70 0.74 0.80 0.83 0.89 0.88 0.88 0.93 0.91 0.85 0.88 0.88 0.85 0.86 0.95 1.08 1.17 1.28 1.35 1.37 1.49 1.86 2.33 2.61 2.47 2.26 1.98 1.92
1.34 1.53 1.84 1.46 1.17 0.94 1.05 1.30 0.71 0.62 0.68 0.65 0.63 0.60 0.62 0.59 0.63 0.68 0.70 0.73 0.75 0.73 0.67 0.71 0.73 0.82 0.84 0.87 0.93 1.02 1.01 1.00 0.99 1.01 0.97 0.93 1.07 1.18 1.28 1.40 1.38 1.44 1.76 2.19 2.55 2.68 2.67 2.44 2.28
1.51 1.50 1.49 1.42 1.20 1.00 0.98 0.98 0.64 0.60 0.68 0.71 0.66 0.62 0.66 0.50 0.51 0.56 0.58 0.64 0.72 0.71 0.63 0.61 0.66 0.68 0.69 0.70 0.76 0.89 0.97 1.03 1.12 1.10 1.11 1.15 1.21 1.22 1.34 1.57 1.61 1.62 1.86 2.07 2.20 2.41 2.60 2.66 2.47
1.17 1.06 1.08 1.18 0.99 0.96 0.92 0.73 0.57 0.59 0.65 0.69 0.71 0.65 0.62 0.46 0.40 0.40 0.46 0.54 0.64 0.66 0.65 0.64 0.66 0.65 0.60 0.58 0.65 0.78 0.86 0.93 1.14 1.19 1.24 1.53 1.65 1.45 1.42 1.60 1.65 1.71 2.01 2.12 2.26 2.55 2.63 2.70 2.68
0.82 0.77 0.86 0.85 0.71 0.87 0.83 0.66 0.56 0.52 0.50 0.54 0.60 0.62 0.59 0.48 0.37 0.33 0.32 0.40 0.48 0.48 0.47 0.57 0.60 0.68 0.67 0.56 0.54 0.67 0.81 0.95 1.11 1.30 1.31 1.52 1.64 1.54 1.59 1.66 1.71 1.75 1.91 1.99 2.15 2.60 2.72 2.70 2.58
0.79 0.85 0.89 0.79 0.67 0.77 0.83 0.69 0.56 0.47 0.42 0.44 0.49 0.53 0.53 0.45 0.39 0.36 0.31 0.34 0.39 0.44 0.40 0.44 0.51 0.62 0.73 0.72 0.71 0.82 1.01 1.11 1.22 1.41 1.44 1.51 1.51 1.49 1.44 1.67 1.84 1.81 1.99 2.05 2.22 2.58 2.90 2.73 2.58
0.74 0.81 0.81 0.82 0.83 0.77 0.83 0.91 0.69 0.52 0.45 0.44 0.43 0.46 0.47 0.40 0.37 0.37 0.34 0.31 0.34 0.36 0.33 0.39 0.51 0.66 0.84 1.01 1.24 1.48 1.77 1.90 1.78 1.67 1.75 1.82 1.85 1.76 1.70 1.80 1.98 1.96 2.04 2.16 2.21 2.34 2.89 3.12 2.90
0.84 0.57 0.59 0.71 0.98 1.02 0.82 1.08 0.74 0.52 0.51 0.51 0.47 0.42 0.40 0.36 0.33 0.31 0.32 0.32 0.33 0.41 0.48 0.58 0.75 0.91 1.07 1.27 1.49 1.76 2.06 2.29 2.26 2.28 2.33 2.25 2.15 2.02 1.88 1.92 2.02 2.08 2.17 2.15 1.98 2.15 2.70 3.26 3.35
0.66 0.57 0.59 0.71 0.95 0.92 0.79 0.81 0.67 0.53 0.62 0.63 0.58 0.49 0.47 0.45 0.42 0.42 0.43 0.43 0.47 0.60 0.74 0.85 1.14 1.33 1.43 1.47 1.57 1.80 1.90 2.02 2.13 2.26 2.31 2.29 2.19 2.07 1.91 1.86 2.02 2.13 2.20 2.18 2.22 2.36 2.67 3.03 3.38
0.55 0.67 0.77 0.88 1.01 0.98 0.66 0.64 0.70 0.52 0.59 0.69 0.66 0.58 0.52 0.50 0.47 0.50 0.58 0.60 0.68 0.92 1.17 1.30 1.44 1.67 1.61 1.50 1.49 1.61 1.76 1.87 1.99 2.14 2.20 2.13 1.98 1.94 1.89 1.89 1.92 1.93 2.02 2.11 2.27 2.50 2.64 2.84 3.08
0.57 0.89 1.15 1.18 1.11 0.80 0.43 0.50 0.58 0.42 0.40 0.49 0.55 0.55 0.51 0.45 0.45 0.51 0.61 0.75 0.97 1.21 1.41 1.55 1.59 1.61 1.53 1.39 1.44 1.48 1.63 1.79 1.85 1.89 1.89 1.87 1.81 1.74 1.73 1.78 1.79 1.72 1.74 1.88 2.05 2.27 2.30 2.43 2.65
0.50 0.65 0.99 1.10 0.94 0.66 0.46 0.61 0.59 0.42 0.32 0.29 0.30 0.36 0.46 0.51 0.57 0.61 0.67 0.87 1.20 1.47 1.70 1.96 1.97 1.77 1.60 1.50 1.53 1.57 1.67 1.73 1.69 1.61 1.62 1.63 1.58 1.53 1.48 1.50 1.55 1.56 1.57 1.64 1.82 1.97 1.94 2.01 2.20
0.47 0.48 0.52 0.73 0.63 0.61 0.52 0.55 0.48 0.32 0.27 0.25 0.28 0.33 0.46 0.55 0.65 0.77 0.93 1.05 1.32 1.56 1.86 2.17 2.27 2.08 1.93 1.84 1.76 1.77 1.67 1.55 1.46 1.38 1.37 1.39 1.41 1.32 1.25 1.29 1.41 1.51 1.50 1.49 1.65 1.77 1.72 1.78 1.91
0.38 0.43 0.52 0.77 0.85 0.81 0.60 0.59 0.51 0.35 0.27 0.27 0.36 0.42 0.50 0.60 0.64 0.82 1.15 1.44 1.75 1.72 1.84 2.05 2.04 2.00 2.00 2.01 2.00 1.92 1.72 1.53 1.46 1.40 1.39 1.35 1.37 1.27 1.24 1.25 1.26 1.29 1.33 1.38 1.55 1.72 1.77 1.75 1.80
0.38 0.43 0.51 0.66 0.68 0.87 0.91 0.77 0.49 0.42 0.40 0.44 0.51 0.53 0.57 0.65 0.71 0.90 1.12 1.35 1.62 1.76 1.77 1.77 1.78 1.87 1.90 1.81 1.76 1.68 1.45 1.28 1.23 1.23 1.21 1.18 1.17 1.09 1.05 1.02 1.06 1.18 1.18 1.19 1.38 1.47 1.48 1.61 1.70
0.42 0.45 0.52 0.82 0.81 0.74 0.98 0.98 0.58 0.54 0.55 0.63 0.70 0.74 0.77 0.79 0.86 1.01 1.13 1.33 1.44 1.47 1.58 1.67 1.58 1.57 1.57 1.48 1.38 1.26 1.18 1.10 1.08 1.07 0.99 0.92 0.97 0.95 0.99 1.01 0.95 1.09 1.23 1.24 1.28 1.28 1.27 1.41 1.51